Time,TemperatureF,DewpointF,PressureIn,WindDirection,WindDirectionDegrees,WindSpeedMPH,WindSpeedGustMPH,Humidity,HourlyPrecipIn,Conditions,Clouds,dailyrainin,SolarRadiationWatts/m^2,SoftwareType,DateUTC
2013-09-12 00:00:00,71.0,69.0,-100.00,SW,225,2.0,-999.0,94,-99.99,,,-99.99,0.000000,,2013-09-12 04:00:00,
2013-09-12 00:44:00,71.0,69.0,-100.00,SW,225,2.0,-999.0,94,-99.99,,,-99.99,0.000000,,2013-09-12 04:44:00,
2013-09-12 00:54:00,71.0,69.0,-100.00,SW,225,2.0,-999.0,94,-99.99,,,-99.99,0.000000,,2013-09-12 04:54:00,
2013-09-12 01:00:00,70.0,69.0,-100.00,SW,225,1.0,-999.0,95,-99.99,,,-99.99,0.000000,,2013-09-12 05:00:00,
2013-09-12 01:43:00,70.0,69.0,-100.00,SW,225,1.0,-999.0,95,-99.99,,,-99.99,0.000000,,2013-09-12 05:43:00,
2013-09-12 01:53:00,70.0,69.0,-100.00,SW,225,1.0,-999.0,95,-99.99,,,-99.99,0.000000,,2013-09-12 05:53:00,
2013-09-12 02:00:00,70.0,68.0,-100.00,SW,225,3.0,-999.0,95,-99.99,,,-99.99,0.000000,,2013-09-12 06:00:00,
2013-09-12 02:42:00,70.0,68.0,-100.00,SW,225,3.0,-999.0,95,-99.99,,,-99.99,0.000000,,2013-09-12 06:42:00,
2013-09-12 02:52:00,70.0,68.0,-100.00,SW,225,3.0,-999.0,95,-99.99,,,-99.99,0.000000,,2013-09-12 06:52:00,
2013-09-12 03:00:00,70.0,68.0,-100.00,SW,225,3.0,-999.0,92,-99.99,,,-99.99,0.000000,,2013-09-12 07:00:00,
2013-09-12 03:44:00,70.0,68.0,-100.00,SW,225,3.0,-999.0,92,-99.99,,,-99.99,0.000000,,2013-09-12 07:44:00,
2013-09-12 03:53:00,70.0,68.0,-100.00,SW,225,3.0,-999.0,92,-99.99,,,-99.99,0.000000,,2013-09-12 07:53:00,
2013-09-12 04:00:00,70.0,68.0,-100.00,SW,225,4.0,-999.0,90,-99.99,,,-99.99,0.000000,,2013-09-12 08:00:00,
2013-09-12 04:42:00,70.0,68.0,-100.00,SW,225,4.0,-999.0,90,-99.99,,,-99.99,0.000000,,2013-09-12 08:42:00,
2013-09-12 04:52:00,70.0,68.0,-100.00,SW,225,4.0,-999.0,90,-99.99,,,-99.99,0.000000,,2013-09-12 08:52:00,
2013-09-12 06:00:00,69.0,67.0,-100.00,SW,225,2.0,-999.0,94,-99.99,,,-99.99,0.000000,,2013-09-12 10:00:00,
2013-09-12 06:43:00,69.0,67.0,-100.00,SW,225,2.0,-999.0,94,-99.99,,,-99.99,0.000000,,2013-09-12 10:43:00,
2013-09-12 06:53:00,69.0,67.0,-100.00,SW,225,2.0,-999.0,94,-99.99,,,-99.99,0.000000,,2013-09-12 10:53:00,
2013-09-12 07:00:00,68.0,67.0,-100.00,WSW,247,4.0,-999.0,95,-99.99,,,-99.99,0.000000,,2013-09-12 11:00:00,
2013-09-12 07:42:00,68.0,67.0,-100.00,WSW,247,4.0,-999.0,95,-99.99,,,-99.99,0.000000,,2013-09-12 11:42:00,
2013-09-12 07:52:00,68.0,67.0,-100.00,WSW,247,4.0,-999.0,95,-99.99,,,-99.99,0.000000,,2013-09-12 11:52:00,
2013-09-12 08:00:00,67.0,66.0,-100.00,West,270,3.0,-999.0,95,-99.99,,,-99.99,9.280000,,2013-09-12 12:00:00,
2013-09-12 08:42:00,67.0,66.0,-100.00,West,270,3.0,-999.0,95,-99.99,,,-99.99,9.280000,,2013-09-12 12:42:00,
2013-09-12 08:52:00,67.0,66.0,-100.00,West,270,3.0,-999.0,95,-99.99,,,-99.99,9.280000,,2013-09-12 12:52:00,
2013-09-12 09:00:00,68.0,66.0,-100.00,NW,315,7.0,-999.0,94,-99.99,,,-99.99,63.799999,,2013-09-12 13:00:00,
2013-09-12 09:42:00,68.0,66.0,-100.00,NW,315,7.0,-999.0,94,-99.99,,,-99.99,63.799999,,2013-09-12 13:42:00,
2013-09-12 09:52:00,68.0,66.0,-100.00,NW,315,7.0,-999.0,94,-99.99,,,-99.99,63.799999,,2013-09-12 13:52:00,
2013-09-12 10:00:00,69.0,65.0,-100.00,NNW,337,7.0,-999.0,86,-99.99,,,-99.99,235.479996,,2013-09-12 14:00:00,
2013-09-12 10:42:00,69.0,65.0,-100.00,NNW,337,7.0,-999.0,86,-99.99,,,-99.99,235.479996,,2013-09-12 14:42:00,
2013-09-12 10:52:00,69.0,65.0,-100.00,NNW,337,7.0,-999.0,86,-99.99,,,-99.99,235.479996,,2013-09-12 14:52:00,
2013-09-12 11:00:00,72.0,61.0,-100.00,NW,315,8.0,-999.0,67,-99.99,,,-99.99,429.200012,,2013-09-12 15:00:00,
2013-09-12 11:44:00,72.0,61.0,-100.00,NW,315,8.0,-999.0,67,-99.99,,,-99.99,429.200012,,2013-09-12 15:44:00,
2013-09-12 11:54:00,72.0,61.0,-100.00,NW,315,8.0,-999.0,67,-99.99,,,-99.99,429.200012,,2013-09-12 15:54:00,
2013-09-12 12:00:00,75.0,55.0,-100.00,WSW,247,8.0,-999.0,49,-99.99,,,-99.99,589.280029,,2013-09-12 16:00:00,
2013-09-12 12:43:00,75.0,55.0,-100.00,WSW,247,8.0,-999.0,49,-99.99,,,-99.99,589.280029,,2013-09-12 16:43:00,
2013-09-12 12:53:00,75.0,55.0,-100.00,WSW,247,8.0,-999.0,49,-99.99,,,-99.99,589.280029,,2013-09-12 16:53:00,
2013-09-12 14:00:00,80.0,50.0,-100.00,WSW,247,5.0,-999.0,35,-99.99,,,-99.99,733.119995,,2013-09-12 18:00:00,
2013-09-12 14:42:00,80.0,50.0,-100.00,WSW,247,5.0,-999.0,35,-99.99,,,-99.99,733.119995,,2013-09-12 18:42:00,
2013-09-12 14:52:00,80.0,50.0,-100.00,WSW,247,5.0,-999.0,35,-99.99,,,-99.99,733.119995,,2013-09-12 18:52:00,
2013-09-12 15:00:00,81.0,49.0,-100.00,West,270,7.0,-999.0,33,-99.99,,,-99.99,599.719971,,2013-09-12 19:00:00,
2013-09-12 15:42:00,81.0,49.0,-100.00,West,270,7.0,-999.0,33,-99.99,,,-99.99,599.719971,,2013-09-12 19:42:00,
2013-09-12 15:52:00,81.0,49.0,-100.00,West,270,7.0,-999.0,33,-99.99,,,-99.99,599.719971,,2013-09-12 19:52:00,
2013-09-12 16:00:00,80.0,52.0,-100.00,West,270,10.0,-999.0,37,-99.99,,,-99.99,532.440002,,2013-09-12 20:00:00,
2013-09-12 16:42:00,80.0,52.0,-100.00,West,270,10.0,-999.0,37,-99.99,,,-99.99,532.440002,,2013-09-12 20:42:00,
2013-09-12 16:52:00,80.0,52.0,-100.00,West,270,10.0,-999.0,37,-99.99,,,-99.99,532.440002,,2013-09-12 20:52:00,
2013-09-12 17:00:00,80.0,53.0,-100.00,WSW,247,10.0,-999.0,38,-99.99,,,-99.99,428.040009,,2013-09-12 21:00:00,
2013-09-12 17:43:00,80.0,53.0,-100.00,WSW,247,10.0,-999.0,38,-99.99,,,-99.99,428.040009,,2013-09-12 21:43:00,
2013-09-12 17:54:00,80.0,53.0,-100.00,WSW,247,10.0,-999.0,38,-99.99,,,-99.99,428.040009,,2013-09-12 21:54:00,
2013-09-12 18:00:00,79.0,53.0,-100.00,WNW,292,10.0,-999.0,41,-99.99,,,-99.99,305.079987,,2013-09-12 22:00:00,
2013-09-12 18:43:00,79.0,53.0,-100.00,WNW,292,10.0,-999.0,41,-99.99,,,-99.99,305.079987,,2013-09-12 22:43:00,
2013-09-12 18:54:00,79.0,53.0,-100.00,WNW,292,10.0,-999.0,41,-99.99,,,-99.99,305.079987,,2013-09-12 22:54:00,
2013-09-12 19:00:00,73.0,56.0,-100.00,WNW,292,15.0,-999.0,55,-99.99,,,-99.99,109.040001,,2013-09-12 23:00:00,
2013-09-12 19:43:00,73.0,56.0,-100.00,WNW,292,15.0,-999.0,55,-99.99,,,-99.99,109.040001,,2013-09-12 23:43:00,
2013-09-12 19:53:00,73.0,56.0,-100.00,WNW,292,15.0,-999.0,55,-99.99,,,-99.99,109.040001,,2013-09-12 23:53:00,
2013-09-12 20:00:00,68.0,56.0,-100.00,SSW,202,9.0,-999.0,64,-99.99,,,-99.99,30.160000,,2013-09-13 00:00:00,
2013-09-12 20:42:00,68.0,56.0,-100.00,SSW,202,9.0,-999.0,64,-99.99,,,-99.99,30.160000,,2013-09-13 00:42:00,
2013-09-12 20:52:00,68.0,56.0,-100.00,SSW,202,9.0,-999.0,64,-99.99,,,-99.99,30.160000,,2013-09-13 00:52:00,
2013-09-12 22:00:00,61.0,52.0,-100.00,West,270,6.0,-999.0,71,-99.99,,,-99.99,0.000000,,2013-09-13 02:00:00,
2013-09-12 22:43:00,61.0,52.0,-100.00,West,270,6.0,-999.0,71,-99.99,,,-99.99,0.000000,,2013-09-13 02:43:00,
2013-09-12 22:53:00,61.0,52.0,-100.00,West,270,6.0,-999.0,71,-99.99,,,-99.99,0.000000,,2013-09-13 02:53:00,